Find GPS IIA-6

NORAD ID: 22108 Int'l Des: 1992-058 Owner: AFSMC Country: US Constellation: GPS operational
MEOCIRCULAR

リアルタイム位置

3D地球を読み込み中...

GPS IIA-6について

説明を読み込み中...

次回通過

Passes for default location (London). Set your location on the main map for personalized predictions.

高度履歴

Loading altitude history...

軌道要素

1 22108U 92058A 26106.36956141 .00000072 00000-0 00000+0 0 9995
2 22108 54.6617 168.9813 0017109 44.4136 315.8115 1.87561028241863
Epoch: Apr 16, 2026 • Age: 26 hours

現在のステータス

高度 21351.4 km
速度 3.79 km/s
衛星直下点 19.60°N, 168.15°E
打ち上げ日 Sep 9, 1992
運用期間 33.6 years
タイプ navigation

技術仕様

分類 Payload
質量 860.00 kg
乾燥質量 860.00 kg
総質量 1881.00 kg
長さ 2.40 m
直径 1.80 m
スパン 5.30 m
形状 Box + 2 Pan
製造者 RWISB
バスタイプ GPS IIA
フェーズステータス In Orbit
所有者/国 AFSMC/US

Most Searched